070  
ASUS41 KPHI 152112  
RWRPHI  
 
REGIONAL WEATHER ROUNDUP  
NATIONAL WEATHER SERVICE MOUNT HOLLY NJ  
400 PM EST SAT DEC 15 2018  
 
NOTE: "FAIR" INDICATES FEW OR NO CLOUDS BELOW 12,000 FEET WITH NO  
SIGNIFICANT WEATHER AND/OR S TO VISIBILITY
.  
 
* = STATION DOES NOT REPORT PRECIPITATION (E.G. RAIN, SNOW, ETC.)  
OR FOG.
 
 
NJZ015>026-152200-  
SOUTHERN NEW JERSEY  
 
CITY SKY/WX TMP DP RH WIND PRES REMARKS
 
POMONA CLOUDY 52 52 100 NE15G23 30.01S FOG  
WILDWOOD* LGT RAIN 50 50 100 NE20G26 30.01R FOG  
MILLVILLE CLOUDY 53 52 96 E6 30.03R  
WRIGHTSTOWN CLOUDY 49 49 100 NE10 30.02R  
MOUNT HOLLY CLOUDY 51 48 89 E7 30.05R  
TRENTON CLOUDY 52 46 80 E9 30.05R  
 

 
NJZ001>014-152200-  
NORTHERN NEW JERSEY  
 
CITY SKY/WX TMP DP RH WIND PRES REMARKS
 
SUSSEX FAIR 46 44 93 NE6 30.09F  
ANDOVER* N/A 45 42 89 NE8 30.07F  
MORRISTOWN PTCLDY 50 46 87 NE13 30.07F  
NEWARK CLOUDY 51 44 77 N15 30.06F  
TETERBORO FAIR 51 45 79 NE6 30.07F  
CALDWELL MOCLDY 50 40 68 VRB7 30.07F  
SOMERVILLE MOCLDY 52 44 74 NE9 30.03F  
ALLAIRE* CLOUDY 50 46 86 NE10 30.05F  
TOMS RIVER* CLOUDY 50 49 96 NE14 30.05R  
 

 
PAZ043-044-047-054-055-060>062-066>071-152200-  
EASTERN PENNSYLVANIA  
 
CITY SKY/WX TMP DP RH WIND PRES REMARKS
 
PHILADELPHIA DRIZZLE 50 49 96 NE9 30.05R FOG  
NORTH PHILA CLOUDY 53 48 83 E9 30.07R  
BLUE BELL* CLOUDY 48 48 100 E7 30.08R  
DOYLESTOWN CLOUDY 50 45 83 VRB7 30.03S  
QUAKERTOWN* CLOUDY 50 46 87 CALM 30.06R  
PERKASIE* CLOUDY 48 48 100 E3 30.06R  
POTTSTOWN CLOUDY 50 48 93 NE5 30.07R  
LANCASTER CLOUDY 52 47 83 E5 30.05R  
COATESVILLE CLOUDY 50 48 93 CALM 30.05R  
READING CLOUDY 52 47 83 E6 30.05R  
ALLENTOWN FAIR 51 43 74 NE15 30.00F  
MOUNT POCONO FAIR 45 39 79 NE10 30.04F  
HAZLETON MOCLDY 46 37 71 NE8 30.03F  
WILKES BARRE FAIR 45 41 86 NE5 30.06F  
 

 
DEZALL-MDZ008-012-015-019-020-152200-  
DELAWARE AND EASTERN MARYLAND  
 
CITY SKY/WX TMP DP RH WIND PRES REMARKS
 
WILMINGTON CLOUDY 51 50 96 NE21 30.01F  
DOVER DRIZZLE 52 52 100 NE13 29.99F FOG  
GEORGETOWN LGT RAIN 55 52 89 NE13 29.99R FOG  
EASTON DRIZZLE 55 54 94 NE12 30.00S  
PATUXENT DRZL/FOG 58 58 100 E15G30 29.90 VSB 1  
OCEAN CITY NOT AVBL  
WALLOPS ISLAND RAIN 52 49 89 NE21G28 29.95R FOG  
CAMBRIDGE CLOUDY 55 54 94 E9G18 29.94S FOG  
SALISBURY CLOUDY 53 53 100 NE14 29.95S FOG  
 

 
PAZ001-021-NYZ056-072-MDZ011-DCZ001-152200-  
OTHER NEARBY LOCATIONS  
 
CITY SKY/WX TMP DP RH WIND PRES REMARKS
 
HARRISBURG CLOUDY 51 46 83 E3 30.03R  
STATE COLLEGE CLOUDY 41 41 100 NE6 30.04S FOG  
WILLIAMSPORT FAIR 45 42 89 CALM 30.05F FOG  
BINGHAMTON FAIR 38 34 85 NE9 30.10F WCI 31  
NEW YORK CITY MOCLDY 51 43 74 MISG 30.10F  
BALTIMORE LGT RAIN 53 52 96 NE17 29.95F FOG  
WASHINGTON DC RAIN 53 50 89 NE13 29.97R FOG  
 

 
 
 
CLICK HERE TO GO TO PREVIOUS BULLETINS.

The Nexlab PA Page
The Nexlab NJ Page
The Nexlab DE Page
The Nexlab MD Page Main Text Page